Orbital Elements at Epoch 2459000.5 (2020-May-31.0) TDB
Reference: JPL 22 (heliocentric ecliptic J2000)
Element | Value | Uncertainty (1-sigma) | Units |
e | .195890219702245 | 3.2152e-08 | |
a | 2.369961234772019 | 7.4508e-09 | au |
q | 1.905709007806724 | 7.7334e-08 | au |
i | 3.577434552864107 | 4.2143e-06 | deg |
node | 356.982597746565 | 5.0701e-05 | deg |
peri | 42.57342705260557 | 5.1929e-05 | deg |
M | 47.39968756640133 | 9.6538e-06 | deg |
tp | 2458825.037921890531 (2019-Dec-07.53792189) | 3.5766e-05 | TDB |
period | 1332.632161993054 3.65 | 6.2844e-06 1.721e-08 | d yr |
n | .2701420619037082 | 1.2739e-09 | deg/d |
Q | 2.834213461737313 | 8.9103e-09 | au |
|
| | Orbit Determination Parameters
Additional Information
|